This demonstration page uses our WeatherBlox Daily Observations layout. Learn more.

Left ArrowRight Arrow

Hourly Observations for March 29, 2015

Temp ( °F °C ) Dew Point ( °F °C ) Humidity (%) Winds ( mph kmh ) Pressure ( in mb ) Visibility ( mi km ) Precip ( " mm )
12:35 am 00:35 Clear 25 -4 12 -11 59 59 N N/A 30.39 1029 10 16 N/A
12:56 am 00:56 Clear 25 -4 21 -6 86 86 N N/A 30.39 1029 10 16 N/A
1:16 am 01:16 Clear 25 -4 16 -9 69 69 SE 3 6 30.39 1029 10 16 N/A
1:35 am 01:35 Clear 27 -3 10 -12 50 50 SE 5 7 30.39 1029 10 16 N/A
1:56 am 01:56 Clear 27 -3 12 -11 54 54 SSE 5 7 30.39 1029 10 16 N/A
2:16 am 02:16 Clear 27 -3 10 -12 50 50 SSE 5 7 30.39 1029 10 16 N/A
2:35 am 02:35 Clear 27 -3 10 -12 50 50 SSE 3 6 30.39 1029 10 16 N/A
2:56 am 02:56 Clear 25 -4 10 -12 54 54 SE 5 7 30.39 1029 10 16 N/A
3:16 am 03:16 Clear 25 -4 10 -12 54 54 S 6 9 30.39 1029 10 16 N/A
3:35 am 03:35 Clear 25 -4 9 -13 50 50 SSE 6 9 30.39 1029 10 16 N/A
3:56 am 03:56 Clear 25 -4 9 -13 50 50 SSE 6 9 30.39 1029 10 16 N/A
4:15 am 04:15 Clear 25 -4 9 -13 50 50 SSE 5 7 30.39 1029 10 16 N/A
4:36 am 04:36 Clear 25 -4 9 -13 50 50 SSE 6 9 30.36 1028 10 16 N/A
4:56 am 04:56 Clear 25 -4 10 -12 54 54 SSE 7 11 30.36 1028 10 16 N/A
5:15 am 05:15 Clear 25 -4 10 -12 54 54 SSE 7 11 30.36 1028 10 16 N/A
5:36 am 05:36 Clear 25 -4 9 -13 50 50 S 6 9 30.36 1028 10 16 N/A
5:56 am 05:56 Clear 25 -4 10 -12 54 54 SSE 6 9 30.36 1028 10 16 N/A
6:15 am 06:15 Clear 25 -4 9 -13 50 50 SSE 8 13 30.36 1028 10 16 N/A
6:36 am 06:36 Clear 25 -4 10 -12 54 54 SSE 7 11 30.33 1027 10 16 N/A
6:55 am 06:55 Clear 25 -4 10 -12 54 54 SSE 8 13 30.33 1027 10 16 N/A
7:16 am 07:16 Clear 25 -4 10 -12 54 54 SSE 9 15 30.33 1027 10 16 N/A
7:36 am 07:36 Sunny 25 -4 10 -12 54 54 S 7 11 30.36 1028 10 16 N/A
7:55 am 07:55 Sunny 27 -3 10 -12 50 50 S 8 13 30.36 1028 10 16 N/A
8:16 am 08:16 Sunny 27 -3 10 -12 50 50 S 10 17 30.36 1028 10 16 N/A
8:36 am 08:36 Sunny 28 -2 10 -12 47 47 S 9 15 30.33 1027 10 16 N/A
8:56 am 08:56 Sunny 30 -1 10 -12 43 43 S 12 19 30.30 1026 10 16 N/A
9:16 am 09:16 Sunny 30 -1 12 -11 47 47 S 10 17 30.30 1026 10 16 N/A
9:35 am 09:35 Sunny 32 undefined 10 -12 40 40 S 14 22 30.30 1026 10 16 N/A
9:56 am 09:56 Sunny 32 undefined 12 -11 44 44 S 16 26 30.30 1026 10 16 N/A
10:16 am 10:16 Sunny 34 1 12 -11 41 41 S 13 20 30.30 1026 10 16 N/A
10:35 am 10:35 Sunny 36 2 12 -11 38 38 S 13 20 30.30 1026 10 16 N/A
10:56 am 10:56 Sunny 36 2 10 -12 35 35 S 15 24 30.27 1025 10 16 N/A
11:16 am 11:16 Sunny 37 3 10 -12 33 33 S 16 26 30.27 1025 10 16 N/A
11:35 am 11:35 Sunny 37 3 10 -12 33 33 S 20 31 30.27 1025 10 16 N/A
11:56 am 11:56 Sunny 39 4 9 -13 28 28 S 17 28 30.24 1024 10 16 N/A
12:16 pm 12:16 Sunny 39 4 10 -12 30 30 S 15 24 30.24 1024 10 16 N/A
12:56 pm 12:56 Sunny 41 5 9 -13 26 26 S 22 35 30.21 1023 10 16 N/A
1:16 pm 13:16 Sunny 43 6 7 -14 22 22 S 18 30 30.21 1023 10 16 N/A
1:35 pm 13:35 Sunny 43 6 10 -12 26 26 S 17 28 30.18 1022 10 16 N/A
1:56 pm 13:56 Sunny 43 6 7 -14 22 22 S 21 33 30.15 1021 10 16 N/A
2:16 pm 14:16 Sunny 43 6 9 -13 24 24 S 22 35 30.12 1020 10 16 N/A
2:35 pm 14:35 Sunny 41 5 9 -13 26 26 S 20 31 30.12 1020 10 16 N/A
2:56 pm 14:56 Sunny 43 6 9 -13 24 24 S 17 28 30.09 1019 10 16 N/A
3:16 pm 15:16 Sunny 43 6 9 -13 24 24 S 17 28 30.03 1017 10 16 N/A
3:35 pm 15:35 Partly Cloudy 41 5 10 -12 28 28 S 21 33 30.03 1017 10 16 N/A
3:56 pm 15:56 Sunny 45 7 9 -13 23 23 S 23 37 30.03 1017 10 16 N/A
4:15 pm 16:15 Sunny 46 8 9 -13 21 21 S 21 33 30.00 1016 10 16 N/A
4:36 pm 16:36 Sunny 46 8 9 -13 21 21 S 22 35 30.00 1016 10 16 N/A
4:56 pm 16:56 Sunny 46 8 7 -14 20 20 S 15 24 30.00 1016 10 16 N/A
5:15 pm 17:15 Sunny 46 8 10 -12 23 23 S 12 19 29.97 1015 10 16 N/A
5:36 pm 17:36 Partly Cloudy 48 9 7 -14 18 18 S 16 26 29.97 1015 10 16 N/A
5:56 pm 17:56 Cloudy 48 9 7 -14 18 18 SSW 10 17 29.97 1015 10 16 N/A
6:16 pm 18:16 Cloudy 46 8 14 -10 27 27 SW 10 17 30.00 1016 10 16 N/A
6:36 pm 18:36 Cloudy 45 7 19 -7 37 37 S 16 26 29.97 1015 10 16 N/A
6:55 pm 18:55 Cloudy 41 5 25 -4 53 53 S 18 30 29.91 1013 4 6 N/A
7:16 pm 19:16 Mostly Cloudy 43 6 27 -3 53 53 SW 9 15 29.97 1015 10 16 N/A
7:36 pm 19:36 Mostly Cloudy 41 5 28 -2 61 61 WSW 8 13 29.97 1015 10 16 N/A
7:55 pm 19:55 Cloudy 41 5 28 -2 61 61 SW 6 9 29.97 1015 10 16 N/A
8:16 pm 20:16 Cloudy 41 5 28 -2 61 61 S 5 7 29.97 1015 10 16 N/A
8:35 pm 20:35 Cloudy 41 5 28 -2 61 61 S 5 7 29.97 1015 10 16 N/A
8:56 pm 20:56 Mostly Cloudy 41 5 28 -2 61 61 S 6 9 29.97 1015 10 16 N/A
9:16 pm 21:16 Cloudy 43 6 28 -2 57 57 SSW 6 9 29.97 1015 10 16 N/A
9:35 pm 21:35 Cloudy 43 6 28 -2 57 57 SSW 7 11 29.97 1015 10 16 N/A
9:56 pm 21:56 Mostly Cloudy 43 6 28 -2 57 57 SSW 8 13 29.97 1015 10 16 N/A
10:16 pm 22:16 Clear 43 6 30 -1 61 61 SW 12 19 29.97 1015 10 16 N/A
10:35 pm 22:35 Partly Cloudy 43 6 30 -1 61 61 SW 12 19 29.97 1015 10 16 N/A
10:56 pm 22:56 Partly Cloudy 45 7 30 -1 57 57 SW 13 20 29.97 1015 10 16 N/A
11:16 pm 23:16 Mostly Cloudy 45 7 32 undefined 61 61 SW 10 17 29.97 1015 10 16 N/A
11:35 pm 23:35 Cloudy 45 7 32 undefined 61 61 SW 10 17 29.97 1015 10 16 N/A
11:56 pm 23:56 Cloudy 45 7 34 1 66 66 SW 10 17 29.97 1015 10 16 N/A

Powered by AerisWeather